Torna al catalogo

STARLINK-30589

AttivoComunicazioniVLEO
NORAD 58103·PAYLOAD·🇺🇸 United States

Lanciato Oct 21, 2023 da Vandenberg Space Force Base

Loading…

Prossimi Passaggi (prossime 24 ore)

TLE

AggiornatoSource: CelesTrak SupGP

Epoca: Sep 14, 2026, 14:05 UTC

1 58103C 23161G   26257.58729167 -.00064821  00000+0 -19156-2 0  2570
2 58103  53.1602   7.0602 0001292  75.9854 332.2106 15.34414792    11

Traccia STARLINK-30589 in tempo reale con AllMySat

Download on the App Store